[[{"header":{"parameterUnit":"m.s-1","parameterCategory":1,"la1":30.2991,"la2":30.254,"lo1":-89.0895,"lo2":-89.0444,"dy":0.0017,"dx":0.0017,"nx":28,"ny":28,"refTime":"2025-08-25T21:00:00:Z","depth":0,"parameterNumber":2,"parameterNumberName":"U-component_of_WINDS"},"data":[0,0,0,0,0,0,0,0,0,0,0,0,0,0,0,0,0,0,0,0,0,0,0,0,0,0,0,0,0,0,0,0,0,0,0,0,0,0,0,0,0,0,0,0,0,0,0,0,0,0,0,0,0,0,0,0,0,0,-2.493,-2.4929,0,-2.4826,-2.4825,-2.4824,-2.4685,-2.4683,-2.468,-2.4678,-2.4572,-2.4572,-2.4571,0,0,0,0,0,0,0,0,0,0,0,0,0,-2.5011,-2.501,-2.493,-2.4929,-2.4928,-2.4827,-2.4825,-2.4824,-2.4685,-2.4683,-2.468,-2.4677,-2.4572,-2.4572,-2.4571,0,0,0,0,0,0,0,0,0,0,0,0,0,-2.4948,-2.501,-2.4931,-2.4847,-2.4838,-2.4827,-2.4825,-2.4823,-2.4686,-2.4682,-2.4679,-2.4676,-2.4573,-2.4572,-2.4571,-2.4634,0,0,-2.4568,-2.4567,0,0,0,0,0,0,0,0,-2.4952,-2.4946,-2.486,-2.4852,-2.4843,-2.4765,-2.4814,-2.476,-2.4687,-2.4744,-2.4678,-2.4674,-2.4639,-2.4633,-2.4621,-2.4629,-2.4624,-2.4568,-2.4567,-2.4567,-2.4566,0,0,0,0,0,0,0,-2.4957,-2.4949,-2.4889,-2.4859,-2.4848,-2.4815,-2.4802,-2.4803,-2.4712,-2.4738,-2.4728,-2.4718,-2.4634,-2.4622,-2.4617,-2.4623,-2.4568,-2.4567,-2.4566,-2.4566,-2.468,-2.4683,0,0,0,0,0,0,-2.4973,-2.4954,-2.4892,-2.4886,-2.489,-2.4816,-2.4802,-2.4793,-2.4712,-2.4696,-2.4721,-2.4712,-2.4625,-2.4618,-2.4613,-2.4683,-2.4567,-2.4566,-2.4565,-2.4676,-2.4681,-2.4685,0,0,0,0,0,0,-2.4976,-2.4969,-2.4897,-2.4917,-2.4905,-2.4818,-2.481,-2.4793,-2.4781,-2.4698,-2.4681,-2.4725,-2.4622,-2.4614,-2.463,-2.4677,-2.4565,-2.4564,-2.4672,-2.4678,-2.4683,-2.4823,0,0,0,0,0,0,-2.4979,-2.4971,-2.4993,-2.4919,-2.4905,-2.4916,-2.4813,-2.4794,-2.478,-2.4767,-2.4698,-2.4684,-2.4619,-2.4632,-2.4629,-2.4674,-2.4563,-2.4667,-2.4675,-2.4681,-2.4814,-2.4833,-2.4849,0,0,0,0,0,-2.4982,-2.5037,-2.4995,-2.4989,-2.4931,-2.4918,-2.4911,-2.4835,-2.4784,-2.4807,-2.4754,-2.4686,-2.4673,-2.4635,-2.463,-2.4676,-2.4664,-2.4673,-2.468,-2.4806,-2.4829,-2.4848,0,0,0,0,0,0,-2.5119,-2.5025,-2.4978,-2.501,-2.4974,-2.4895,-2.4921,-2.4861,-2.4838,-2.4827,-2.4735,-2.472,-2.4748,-2.4713,-2.4673,-2.4733,-2.4658,-2.4666,-2.4756,-2.4777,-2.4794,-2.4802,-2.4563,0,0,0,0,0,-2.5153,-2.515,-2.5068,-2.5105,-2.5089,-2.5009,-2.5,-2.4945,-2.4904,-2.4887,-2.4835,-2.4798,-2.4785,-2.4779,-2.4762,-2.4808,-2.4792,-2.4837,-2.4854,-2.4869,-2.4877,-2.4901,-2.4921,-2.4712,-2.4711,-2.4711,0,0,-2.5223,-2.5172,-2.5175,-2.5131,-2.5096,-2.5096,-2.4996,-2.5,-2.5,-2.4888,-2.49,-2.4861,-2.4813,-2.4845,-2.4856,-2.4816,-2.4931,-2.488,-2.4892,-2.4892,-2.4912,-2.4931,-2.4949,-2.4717,-2.4716,-2.4715,0,0,-2.5351,-2.5311,-2.5338,-2.5306,-2.5254,-2.5201,-2.5208,-2.5138,-2.5108,-2.5119,-2.5036,-2.5034,-2.5014,-2.4984,-2.4966,-2.5085,-2.5023,-2.5082,-2.5174,-2.5198,-2.5215,-2.5229,-2.5274,-2.5291,-2.509,-2.5091,-2.5091,0,-2.5445,-2.5441,-2.536,-2.5369,-2.5353,-2.5252,-2.528,-2.5252,-2.5198,-2.519,-2.5146,-2.512,-2.508,-2.5105,-2.5134,-2.5122,-2.5128,-2.509,-2.5219,-2.5233,-2.5245,-2.5286,-2.5303,-2.5099,-2.5098,-2.5097,-2.5096,0,-2.556,-2.5559,-2.5587,-2.5539,-2.5525,-2.5544,-2.5466,-2.5463,-2.541,-2.5362,-2.5375,-2.5324,-2.5297,-2.5298,-2.5246,-2.5316,-2.5294,-2.5236,-2.5159,-2.5274,-2.5311,-2.5326,-2.511,-2.5107,-2.5105,-2.5103,0,0,-2.5771,-2.5678,-2.569,-2.5668,-2.5604,-2.5602,-2.5617,-2.5591,-2.5591,-2.5557,-2.5569,-2.5555,-2.5502,-2.5482,-2.5425,-2.5447,-2.5547,-2.5386,-2.5383,-2.5419,-2.5624,-2.5669,-2.5689,-2.5505,-2.5508,-2.551,-2.5629,0,-2.5888,-2.5908,-2.5836,-2.5875,-2.5874,-2.578,-2.5793,-2.5756,-2.5712,-2.5705,-2.5656,-2.5649,-2.5578,-2.5566,-2.5582,-2.5532,-2.5587,-2.5522,-2.5516,-2.5517,-2.5533,-2.5708,-2.5755,-2.587,-2.5643,-2.5645,-2.5647,0,-2.6028,-2.6003,-2.6042,-2.5979,-2.5976,-2.5989,-2.596,-2.5954,-2.5912,-2.5878,-2.5857,-2.5792,-2.5804,-2.573,-2.5745,-2.5702,-2.5695,-2.5671,-2.5673,-2.5671,-2.559,-2.5712,-2.5904,-2.5922,-2.5669,-2.5667,-2.5665,0,-2.618,-2.6156,-2.6177,-2.6161,-2.6087,-2.6099,-2.6069,-2.6022,-2.6012,-2.5987,-2.5979,-2.5956,-2.5944,-2.5928,-2.5859,-2.5811,-2.5884,-2.5803,-2.5857,-2.586,-2.5878,-2.5878,-2.6073,-2.5871,-2.5871,-2.5871,-2.5871,0,-2.632,-2.6348,-2.6245,-2.6258,-2.6288,-2.6205,-2.6237,-2.6197,-2.6157,-2.6162,-2.6078,-2.6084,-2.5992,-2.5989,-2.5935,-2.5957,-2.5952,-2.5926,-2.5912,-2.5934,-2.5938,-2.593,-2.5921,-2.5875,-2.5874,-2.5873,-2.5873,0,-2.6495,-2.6427,-2.6444,-2.6373,-2.6356,-2.6381,-2.6321,-2.6331,-2.6282,-2.6289,-2.6286,-2.6209,-2.6201,-2.6131,-2.6106,-2.607,-2.6114,-2.6083,-2.6129,-2.612,-2.6179,-2.6175,-2.6377,-2.64,-2.6183,-2.6185,-2.6187,0,-2.6589,-2.6609,-2.6541,-2.6538,-2.6512,-2.6508,-2.6497,-2.6417,-2.641,-2.6364,-2.638,-2.6365,-2.6349,-2.634,-2.6283,-2.6265,-2.6234,-2.6306,-2.6231,-2.6254,-2.6238,-2.6238,-2.6241,-2.6323,-2.6326,-2.6328,-2.633,0,-2.6764,-2.673,-2.6718,-2.6695,-2.6684,-2.6662,-2.6635,-2.6637,-2.6549,-2.6545,-2.6536,-2.6524,-2.65,-2.6487,-2.6459,-2.6428,-2.6366,-2.6354,-2.6366,-2.639,-2.6417,-2.6405,-2.6175,-2.635,-2.6348,-2.6346,-2.6345,-2.6344,-2.6902,-2.6917,-2.6872,-2.6861,-2.6833,-2.681,-2.6816,-2.6768,-2.6759,-2.6734,-2.6687,-2.6686,-2.6644,-2.66,-2.6575,-2.6574,-2.6536,-2.6553,-2.6558,-2.6564,-2.6577,-2.6416,-2.6568,-2.6568,-2.6567,-2.6566,-2.6566,0,-2.7075,-2.7042,-2.7033,-2.6998,-2.6991,-2.6932,-2.6899,-2.6897,-2.6897,-2.6863,-2.6849,-2.684,-2.6828,-2.6771,-2.6752,-2.6762,-2.6733,-2.676,-2.676,-2.6754,-2.661,-2.6603,-2.6784,-2.6784,-2.6784,-2.6784,-2.6784,-2.6784,-2.7164,-2.7185,-2.7146,-2.7153,-2.7119,-2.7117,-2.7104,-2.7083,-2.7056,-2.705,-2.704,-2.7002,-2.696,-2.6938,-2.6924,-2.6908,-2.6906,-2.6944,-2.6918,-2.6785,-2.6764,-2.6744,-2.6736,-2.6943,-2.6943,-2.7062,-2.7063,-2.7064]},{"header":{"parameterUnit":"m.s-1","parameterCategory":1,"la1":30.2991,"la2":30.254,"lo1":-89.0895,"lo2":-89.0444,"dy":0.0017,"dx":0.0017,"nx":28,"ny":28,"refTime":"2025-08-25T21:00:00:Z","depth":0,"parameterNumber":3,"parameterNumberName":"V-component_of_WINDS"},"data":[0,0,0,0,0,0,0,0,0,0,0,0,0,0,0,0,0,0,0,0,0,0,0,0,0,0,0,0,0,0,0,0,0,0,0,0,0,0,0,0,0,0,0,0,0,0,0,0,0,0,0,0,0,0,0,0,0,0,1.0054,1.0053,0,0.9943,0.9942,0.9941,0.99,0.99,0.9901,0.9901,0.9785,0.9781,0.9778,0,0,0,0,0,0,0,0,0,0,0,0,0,1.0228,1.0225,1.0054,1.0052,1.0051,0.9943,0.9942,0.994,0.99,0.99,0.9901,0.9901,0.9786,0.9782,0.9778,0,0,0,0,0,0,0,0,0,0,0,0,0,1.0138,1.0224,1.0054,1.0018,1.0014,0.9944,0.9942,0.994,0.99,0.99,0.9901,0.9901,0.9787,0.9782,0.9777,0.9734,0,0,0.9761,0.9759,0,0,0,0,0,0,0,0,1.0144,1.0132,1.0025,1.002,1.0015,0.9936,0.9961,0.9871,0.99,0.9943,0.9901,0.9902,0.9834,0.9825,0.9803,0.9729,0.9724,0.9761,0.9758,0.9756,0.9754,0,0,0,0,0,0,0,1.015,1.0137,1.001,1.0023,1.0017,1.0007,0.9995,0.9943,0.9887,0.9939,0.9936,0.9924,0.9832,0.9808,0.98,0.9722,0.9761,0.9757,0.9753,0.9751,0.9607,0.9606,0,0,0,0,0,0,1.0162,1.0142,1.0013,1.0007,1.0082,1.0003,0.999,0.9961,0.9887,0.9877,0.9923,0.9922,0.9817,0.9806,0.9796,0.974,0.9756,0.9751,0.9748,0.9607,0.9606,0.9606,0,0,0,0,0,0,1.0166,1.0151,1.0018,1.0073,1.0056,1.0,0.9968,0.9958,0.9935,0.9875,0.9865,0.991,0.9817,0.9803,0.975,0.9736,0.9748,0.9744,0.9608,0.9607,0.9606,0.9629,0,0,0,0,0,0,1.0171,1.0153,1.0136,1.0073,1.0053,0.9974,0.9967,0.9956,0.9926,0.9924,0.986,0.985,0.9816,0.9758,0.9745,0.9729,0.974,0.9609,0.9608,0.9606,0.9629,0.9629,0.9629,0,0,0,0,0,1.0178,1.0146,1.0136,1.012,1.0031,0.9974,0.9962,0.9925,0.9925,0.9908,0.987,0.9852,0.974,0.9753,0.9738,0.972,0.961,0.9608,0.9607,0.963,0.9629,0.9629,0,0,0,0,0,0,1.0208,1.0137,1.0125,1.0072,1.0029,0.9967,0.9943,0.9926,0.9881,0.988,0.9836,0.9822,0.9772,0.9741,0.9756,0.9675,0.9674,0.9669,0.9697,0.9696,0.9695,0.9703,0.9735,0,0,0,0,0,1.0209,1.0169,1.0109,1.0069,1.0048,1.0,0.9973,0.9949,0.9902,0.9884,0.9841,0.9796,0.9751,0.9722,0.9677,0.9626,0.9611,0.9606,0.9606,0.9606,0.9602,0.9572,0.9569,0.96,0.96,0.96,0,0,1.0209,1.0166,1.0143,1.0073,1.0037,0.9996,0.9984,0.9941,0.991,0.9877,0.9824,0.9792,0.9738,0.9686,0.9661,0.9658,0.959,0.9604,0.9604,0.96,0.957,0.9567,0.9565,0.9599,0.9599,0.9599,0,0,1.0188,1.0152,1.0114,1.0079,1.0025,0.9994,0.9985,0.9925,0.9903,0.985,0.9824,0.9786,0.9709,0.9672,0.9643,0.9612,0.9593,0.9598,0.9595,0.9567,0.9565,0.9562,0.955,0.9546,0.9595,0.9595,0.9595,0,1.0195,1.0133,1.0097,1.0055,1.0026,0.9995,0.9956,0.9924,0.9857,0.9837,0.9836,0.974,0.9702,0.964,0.9633,0.9611,0.9598,0.9604,0.9568,0.9565,0.9563,0.955,0.9546,0.9596,0.9596,0.9595,0.9595,0,1.0144,1.0102,1.0077,1.0016,0.9983,0.9943,0.9901,0.9872,0.9852,0.982,0.9766,0.972,0.9665,0.965,0.9628,0.9585,0.9585,0.9577,0.9575,0.9561,0.9549,0.9544,0.9597,0.9597,0.9596,0.9596,0,0,1.0137,1.0057,1.0049,1.0021,0.996,0.9926,0.9885,0.9833,0.9809,0.9765,0.9729,0.9666,0.9658,0.9625,0.96,0.9576,0.9552,0.957,0.9568,0.9567,0.9501,0.9507,0.9502,0.9541,0.954,0.9539,0.9506,0,1.0107,1.0033,1.0,0.9941,0.9901,0.9873,0.9837,0.9795,0.9766,0.9727,0.9694,0.9649,0.9643,0.9623,0.9598,0.9561,0.9538,0.9563,0.9505,0.9504,0.9518,0.9496,0.9501,0.9471,0.9501,0.95,0.9499,0,1.0062,1.002,0.9956,0.9901,0.9883,0.9852,0.9802,0.9765,0.9718,0.9698,0.9663,0.9639,0.9595,0.9598,0.9535,0.9553,0.9528,0.9506,0.9504,0.9496,0.9499,0.9485,0.9461,0.9456,0.9491,0.9492,0.9493,0,1.0062,0.9989,0.9942,0.9919,0.9853,0.9832,0.9804,0.9757,0.9728,0.9685,0.9665,0.9617,0.959,0.9553,0.9516,0.9522,0.9457,0.9457,0.9438,0.9439,0.9424,0.9425,0.9394,0.9411,0.9411,0.9411,0.9411,0,1.0031,0.9994,0.9941,0.9911,0.9868,0.9831,0.9789,0.9759,0.9718,0.9682,0.9655,0.9622,0.9577,0.9538,0.9509,0.9462,0.945,0.9432,0.9424,0.9433,0.9435,0.9414,0.9415,0.941,0.941,0.941,0.9411,0,1.0023,0.9986,0.9932,0.9876,0.9861,0.9832,0.9783,0.9753,0.9723,0.9678,0.9665,0.9618,0.957,0.9531,0.9469,0.945,0.94,0.9392,0.9416,0.9411,0.9394,0.9396,0.9347,0.9339,0.9364,0.9363,0.9363,0,1.0005,0.9975,0.9916,0.9891,0.9863,0.9822,0.9793,0.9756,0.9727,0.9672,0.9649,0.96,0.9558,0.9484,0.9444,0.9396,0.9386,0.9372,0.9378,0.9388,0.9384,0.9385,0.9382,0.9371,0.9371,0.9371,0.9371,0,0.9976,0.996,0.9919,0.9872,0.9839,0.98,0.976,0.9741,0.9697,0.9665,0.9617,0.9585,0.9523,0.9474,0.9423,0.9393,0.9374,0.937,0.9362,0.937,0.9385,0.9375,0.9413,0.937,0.937,0.937,0.937,0.937,0.9961,0.9933,0.9888,0.9843,0.981,0.9774,0.9744,0.9711,0.9671,0.9617,0.9598,0.9549,0.9503,0.9432,0.9403,0.9363,0.9361,0.9351,0.9348,0.9346,0.9346,0.9393,0.9354,0.9354,0.9354,0.9354,0.9354,0,0.9929,0.99,0.986,0.9806,0.9771,0.9759,0.9715,0.9686,0.9643,0.9603,0.9564,0.9509,0.9462,0.9419,0.937,0.9347,0.9337,0.9335,0.9335,0.9329,0.9352,0.9362,0.9344,0.9344,0.9344,0.9344,0.9344,0.9344,0.9909,0.9862,0.984,0.9777,0.9747,0.9699,0.9675,0.9641,0.9609,0.9549,0.9511,0.9484,0.9442,0.939,0.9347,0.9336,0.9318,0.9318,0.9304,0.9326,0.9327,0.9328,0.9338,0.9315,0.9315,0.9284,0.9284,0.9284]}]]